METEOR 3M

导读 | 豆包AI

METEOR 3M是独联体(CIS)继承自苏联航天体系下,由俄罗斯研制的第三代改进型极轨气象卫星,于2001年12月10日成功发射。它运行在1012km高的近圆太阳同步极轨道,配备了成像光谱、气溶胶探测等多种载荷,设计寿命3年,实际因供电故障于2006年停止工作,超额服役近一年,仅发射该星,后续任务被新一代Meteor-M系列替代。

Basic Information
目录编号:
27001
目录名称:
METEOR 3M
国际标识:
2001-056A
轨道中心:
EARTH
卫星名称:
METEOR 3M
卫星全名:
--
卫星状态:
在轨 (已飞行8860 天)
发射日期:
2001-12-10 UTC
国别 :
俄罗斯(独联体) (CIS)
星等 :
--
Orbit Information
数据来源 国际轨道数据 AOE轨道数据
星历时间 2026-03-13T18:52:56+0800
16小时前
查看轨道信息
2026-03-11T06:00:00+0800
3天前
查看轨道信息
半长轴 7381.167km 7381.166km
偏心率 0.0014358 0.0014333
轨道倾角 99.822° 99.823°
近地点辐角 83.301° 89.301°
升交点赤经 257.135° 254.551°
平近点角 305.787° 43.770°
近地点 992.432km 992.449km
远地点 1013.628km 1013.609km
周期 105.183分钟 105.183分钟
每日圈数 13.690371 13.690375
Detailed Information
使用方式:
暂无
2D Orbit Map
3D Orbit Map
Orbit Altitude Analysis Chart
Orbit Inclination Analysis Chart
Orbit Comprehensive Analysis Chart
View Comprehensive Chart